Main page
METAR-TAF:

METAR-TAF

Airports :

Jubail Airport

Jubail, Saudi Arabia

latitude: 27-02-20N, longitude: 49-24-18E, elevation: 8 m

Current weather observation

The report was made 43 minutes ago, at 20:00 UTC
Wind 5 kt from the Northeast
Temperature 35°C
Humidity 25%
Pressure 998 hPa
Visibility 10 km or more
no clouds below 1500 m and no cumulonimbus

METAR: OEJB 252000Z AUTO 05005KT CAVOK 35/12 Q0998 NOSIG

Time: 23:43 (20:43 UTC)


TAF: missing

Weather observations and forecasts of more than 4000 airports (METAR and TAF reports).

The available stations are represented by yellow and red dots on the map.

Hover mouse over dot to see the name of the station.

Then click to see weather observations and forecasts.

To change the map : click on the green buttons with a black cross to zoom in, on the green button with a dash to zoom out, or on the green arrows for adjacent maps.


METAR-TAF: